sat.trackr.live / text

‹ back to catalog

HULIANWANG DIGUI-20

NORAD 63687 · 2025-086A

PAYLOAD ACTIVE UNKNOWN

§ Identity

Operator
Country
PRC
Launch date
2025-04-28
Launch site
WSC
Launch vehicle
Mass (kg)
RCS (m²)

External: N2YO · Heavens-Above · Gunter

§ Orbital elements

Epoch: 2026-05-25T03:12:25.439328Z

Period
108.73 min
Inclination
86.5033°
Eccentricity
0.0001451
Mean motion
13.24409001 rev/d
Perigee alt
1,166.8 km
Apogee alt
1,169.0 km
Semi-major
7,546.1 km
B*
1.0733e-4
RAAN
320.9020°
Arg perigee
82.1979°
Mean anomaly
277.9319°
Rev number
5,182

§ Raw data

HULIANWANG DIGUI-201 63687U 25086A   26145.13362777  .00000061  00000+0  10733-3 0  99982 63687  86.5033 320.9020 0001451  82.1979 277.9319 13.24409001 51828

JSON: /api/v1/satellites/63687 · /tle

For live sub-satellite position, see the globe view (requires WebGL).

§ Visibility from observer

Set your observer location to see the next 7 days of passes ≥ 10°. The values pass through the URL so the page stays shareable.

No JS? Fill the form by hand. The geolocation button needs JavaScript.